Simultaneous Nadir Overpasses (SNOs) Predictions

Prediction of SNOs between GOES-14 and NOAA-20 Satellite Orbit:

Table of predicted SNOs for the next 14.0 days since TLE Epoch: 5/2/2020
Index Date Time (GOES-14) GOES-14 Lat,Lon NOAA-20 Lat,Lon Distance(km) Time Diff (sec)
1 05/03/2020 08:24:21 0.12,-104.13 0.30,-105.08 107.28 80
2 05/04/2020 08:08:16 0.13,-104.14 -0.68,-100.54 410.17 80
3 05/05/2020 20:30:13 -0.11,-104.20 -0.45,-105.86 188.40 80
4 05/06/2020 20:08:48 -0.12,-104.20 0.53,-101.32 327.84 80
5 05/08/2020 08:30:35 0.09,-104.14 0.65,-106.59 279.84 80
6 05/09/2020 08:14:30 0.10,-104.14 -0.39,-102.06 237.48 80
7 05/10/2020 20:36:27 -0.08,-104.22 -0.79,-107.37 359.24 80
8 05/11/2020 20:15:01 -0.10,-104.22 0.19,-102.83 157.10 80
9 05/13/2020 08:36:49 0.07,-104.14 0.98,-108.10 452.48 80
10 05/14/2020 08:20:44 0.09,-104.15 -0.05,-103.58 65.13 80




NCC Satellite Simultaneous Nadir Overpasses (SNOs) Prediction Service
